Parry Sound, Ontario

4:21 AM EST on January 22, 2018 (GMT -0500)
Parry Sound

Weather History for CXPC - April, 2014

Change the Weather History Date:

Monday, April 28, 2014

  Actual Average Record
Temperature  
Mean Temperature 47 °F -  
Max Temperature 61 °F - - ()
Min Temperature 33 °F - - ()
Degree Days  
Heating Degree Days 18    
Moisture  
Dew Point 23 °F    
Average Humidity 38    
Maximum Humidity 67    
Minimum Humidity 14    
Precipitation  
Precipitation 0.00 in - - ()
Sea Level Pressure  
Sea Level Pressure 30.13 in    
Wind  
Wind Speed - ()    
Max Wind Speed -    
Max Gust Speed -    
T = Trace of Precipitation, MM = Missing Value Source: Averaged Metar Reports

Daily Weather History Graph

Daily Weather History Graph

Search for Another Location

Airport or City:

Trip Planner

Search our weather history database for the weather conditions in past years. The results will help you decide how hot, cold, wet, or windy it might be!

Date:

Astronomy

Apr. 28, 2014 Rise Set
Actual Time 6:13 AM EDT 8:22 PM EDT
Civil Twilight 5:41 AM EDT 8:55 PM EDT
Nautical Twilight 5:01 AM EDT 9:35 PM EDT
Astronomical Twilight 4:17 AM EDT 10:19 PM EDT
Moon 5:53 AM EDT (4/28) 7:57 PM EDT (4/28)
Length of Visible Light 15h 14m
Length of Day
14h 09m
Waning Crescent, 0% of the Moon is Illuminated
Apr 28
Waning Crescent
Apr 29
New
May 6
First Quarter
May 14
Full
May 21
Last Quarter

Hourly Weather History & Observations

Time (EDT) Temp. Dew Point Humidity Pressure Visibility Wind Dir Wind Speed Gust Speed Precip Events Conditions
12:00 AM 42.3 °F 22.6 °F 46% 30.25 in - North - - N/A   Unknown
1:00 AM 40.6 °F 22.6 °F 49% 30.24 in - North - - N/A   Unknown
2:00 AM 39 °F 23 °F 39% 30.22 in - Calm Calm - -  
2:00 AM 39.4 °F 22.8 °F 52% 30.22 in - North - - N/A   Unknown
3:00 AM 37.4 °F 23.4 °F 57% 30.20 in - North - - N/A   Unknown
4:00 AM 36.9 °F 23.0 °F 57% 30.20 in - North - - N/A   Unknown
5:00 AM 35.4 °F 23.2 °F 61% 30.20 in - North - - N/A   Unknown
6:00 AM 32.9 °F 23.0 °F 67% 30.23 in - North - - N/A   Unknown
7:00 AM 33.8 °F 23.7 °F 67% 30.25 in - North - - N/A   Unknown
8:00 AM 38 °F 24 °F 44% 30.21 in - Calm Calm - -  
8:00 AM 37.8 °F 23.7 °F 57% 30.21 in - North - - N/A   Unknown
9:00 AM 44.4 °F 23.2 °F 43% 30.21 in - North - - N/A   Unknown
10:00 AM 48.4 °F 21.7 °F 35% 30.19 in - North - - N/A   Unknown
11:00 AM 51.3 °F 21.0 °F 31% 30.17 in - North - - N/A   Unknown
12:00 PM 54.0 °F 21.2 °F 28% 30.15 in - North - - N/A   Unknown
1:00 PM 55.8 °F 23.0 °F 28% 30.13 in - North - - N/A   Unknown
2:00 PM 58 °F 22 °F 14% 30.09 in - Calm Calm - -  
2:00 PM 57.7 °F 21.9 °F 25% 30.09 in - North - - N/A   Unknown
3:00 PM 58.3 °F 20.7 °F 23% 30.06 in - North - - N/A   Unknown
4:00 PM 59.4 °F 21.2 °F 23% 30.04 in - North - - N/A   Unknown
5:00 PM 59.0 °F 21.2 °F 23% 30.03 in - North - - N/A   Unknown
6:00 PM 59.4 °F 22.5 °F 24% 30.03 in - North - - N/A   Unknown
7:00 PM 58.6 °F 22.5 °F 25% 30.04 in - North - - N/A   Unknown
8:00 PM 57 °F 24 °F 17% 30.03 in - Calm Calm - -  
8:00 PM 56.8 °F 24.3 °F 28% 30.03 in - North - - N/A   Unknown
9:00 PM 52.2 °F 25.0 °F 35% 30.04 in - North - - N/A   Unknown
10:00 PM 49.1 °F 26.4 °F 41% 30.02 in - North - - N/A   Unknown
11:00 PM 51.1 °F 26.1 °F 38% 30.00 in - North - - N/A   Unknown